Time,TemperatureF,DewpointF,PressureIn,WindDirection,WindDirectionDegrees,WindSpeedMPH,WindSpeedGustMPH,Humidity,HourlyPrecipIn,Conditions,Clouds,dailyrainin,SoftwareType,DateUTC
2013-11-10 00:01:00,46.9,23.2,30.29,SSW,208,0.0,3.0,39,0.00,,,0.00,meteohub,2013-11-10 05:01:00,
2013-11-10 00:02:00,46.9,23.9,30.29,WNW,288,0.0,3.0,40,0.00,,,0.00,meteohub,2013-11-10 05:02:00,
2013-11-10 00:03:00,46.9,23.9,30.29,WNW,296,0.0,3.0,40,0.00,,,0.00,meteohub,2013-11-10 05:03:00,
2013-11-10 00:08:00,46.8,23.7,30.28,NE,36,0.0,3.0,40,0.00,,,0.00,meteohub,2013-11-10 05:08:00,
2013-11-10 00:13:00,46.6,23.5,30.28,NE,42,0.0,3.0,40,0.00,,,0.00,meteohub,2013-11-10 05:13:00,
2013-11-10 00:18:00,46.2,24.4,30.28,NE,42,0.0,2.0,42,0.00,,,0.00,meteohub,2013-11-10 05:18:00,
2013-11-10 00:23:00,45.9,24.6,30.28,NE,44,0.0,2.0,43,0.00,,,0.00,meteohub,2013-11-10 05:23:00,
2013-11-10 00:28:00,45.3,25.2,30.28,NE,44,0.0,1.0,45,0.00,,,0.00,meteohub,2013-11-10 05:28:00,
2013-11-10 00:33:00,44.8,22.5,30.28,ESE,104,0.0,0.0,41,0.00,,,0.00,meteohub,2013-11-10 05:33:00,
2013-11-10 00:38:00,44.8,23.0,30.27,East,80,0.0,1.0,42,0.00,,,0.00,meteohub,2013-11-10 05:38:00,
2013-11-10 00:43:00,44.4,23.4,30.27,NE,50,0.0,1.0,43,0.00,,,0.00,meteohub,2013-11-10 05:43:00,
2013-11-10 00:48:00,44.2,24.3,30.27,NE,50,0.0,1.0,45,0.00,,,0.00,meteohub,2013-11-10 05:48:00,
2013-11-10 00:53:00,43.9,23.9,30.27,NE,51,0.0,1.0,45,0.00,,,0.00,meteohub,2013-11-10 05:53:00,
2013-11-10 00:58:00,43.9,24.4,30.27,NE,49,0.0,1.0,46,0.00,,,0.00,meteohub,2013-11-10 05:58:00,
2013-11-10 01:03:00,43.5,24.1,30.27,ENE,75,0.0,0.0,46,0.00,,,0.00,meteohub,2013-11-10 06:03:00,
2013-11-10 01:09:00,43.5,23.5,30.27,NE,36,1.0,0.0,45,0.00,,,0.00,meteohub,2013-11-10 06:09:00,
2013-11-10 01:14:00,43.5,24.6,30.27,NE,40,2.0,2.0,47,0.00,,,0.00,meteohub,2013-11-10 06:14:00,
2013-11-10 01:19:00,43.2,25.3,30.27,NE,44,1.0,3.0,49,0.00,,,0.00,meteohub,2013-11-10 06:19:00,
2013-11-10 01:24:00,43.0,25.2,30.27,ENE,70,1.0,3.0,49,0.00,,,0.00,meteohub,2013-11-10 06:24:00,
2013-11-10 01:29:00,43.3,25.0,30.27,NE,55,0.0,4.0,48,0.00,,,0.00,meteohub,2013-11-10 06:29:00,
2013-11-10 01:34:00,43.2,25.7,30.27,NE,40,0.0,4.0,50,0.00,,,0.00,meteohub,2013-11-10 06:34:00,
2013-11-10 01:39:00,43.2,24.8,30.27,East,91,0.0,4.0,48,0.00,,,0.00,meteohub,2013-11-10 06:39:00,
2013-11-10 01:44:00,43.2,24.8,30.27,ENE,60,0.0,2.0,48,0.00,,,0.00,meteohub,2013-11-10 06:44:00,
2013-11-10 01:49:00,43.3,24.4,30.27,East,95,0.0,2.0,47,0.00,,,0.00,meteohub,2013-11-10 06:49:00,
2013-11-10 01:54:00,43.5,24.1,30.27,SSW,195,0.0,1.0,46,0.00,,,0.00,meteohub,2013-11-10 06:54:00,
2013-11-10 01:59:00,43.3,23.4,30.26,SSW,207,0.0,1.0,45,0.00,,,0.00,meteohub,2013-11-10 06:59:00,
2013-11-10 02:04:00,43.3,23.9,30.27,West,269,0.0,1.0,46,0.00,,,0.00,meteohub,2013-11-10 07:04:00,
2013-11-10 02:09:00,43.3,23.4,30.27,WSW,240,0.0,2.0,45,0.00,,,0.00,meteohub,2013-11-10 07:09:00,
2013-11-10 02:14:00,43.2,26.8,30.26,NNE,19,0.0,2.0,52,0.00,,,0.00,meteohub,2013-11-10 07:14:00,
2013-11-10 02:19:00,42.4,25.2,30.26,NNE,20,0.0,3.0,50,0.00,,,0.00,meteohub,2013-11-10 07:19:00,
2013-11-10 02:24:00,42.1,24.3,30.26,NNW,327,0.0,3.0,49,0.00,,,0.00,meteohub,2013-11-10 07:24:00,
2013-11-10 02:29:00,41.9,24.6,30.26,NNW,327,0.0,3.0,50,0.00,,,0.00,meteohub,2013-11-10 07:29:00,
2013-11-10 02:34:00,41.9,24.1,30.27,SW,231,0.0,0.0,49,0.00,,,0.00,meteohub,2013-11-10 07:34:00,
2013-11-10 02:39:00,42.3,25.0,30.26,WSW,252,0.0,1.0,50,0.00,,,0.00,meteohub,2013-11-10 07:39:00,
2013-11-10 02:44:00,41.7,27.1,30.26,SE,143,1.0,1.0,56,0.00,,,0.00,meteohub,2013-11-10 07:44:00,
2013-11-10 02:49:00,41.7,24.4,30.26,West,266,0.0,1.0,50,0.00,,,0.00,meteohub,2013-11-10 07:49:00,
2013-11-10 02:54:00,41.5,24.8,30.26,NE,38,0.0,2.0,51,0.00,,,0.00,meteohub,2013-11-10 07:54:00,
2013-11-10 02:59:00,41.5,24.8,30.25,NW,318,0.0,2.0,51,0.00,,,0.00,meteohub,2013-11-10 07:59:00,
2013-11-10 03:04:00,41.2,25.3,30.26,WNW,291,0.0,1.0,53,0.00,,,0.00,meteohub,2013-11-10 08:04:00,
2013-11-10 03:09:00,41.2,24.8,30.26,SSW,205,0.0,1.0,52,0.00,,,0.00,meteohub,2013-11-10 08:09:00,
2013-11-10 03:14:00,40.8,25.0,30.25,SE,142,0.0,2.0,53,0.00,,,0.00,meteohub,2013-11-10 08:14:00,
2013-11-10 03:19:00,40.6,25.7,30.26,SE,141,0.0,2.0,55,0.00,,,0.00,meteohub,2013-11-10 08:19:00,
2013-11-10 03:24:00,40.1,25.2,30.26,ESE,113,0.0,2.0,55,0.00,,,0.00,meteohub,2013-11-10 08:24:00,
2013-11-10 03:29:00,39.9,25.0,30.26,SE,131,0.0,1.0,55,0.00,,,0.00,meteohub,2013-11-10 08:29:00,
2013-11-10 03:34:00,39.7,25.3,30.26,SSW,203,0.0,1.0,56,0.00,,,0.00,meteohub,2013-11-10 08:34:00,
2013-11-10 03:39:00,39.7,25.3,30.26,SSW,202,0.0,1.0,56,0.00,,,0.00,meteohub,2013-11-10 08:39:00,
2013-11-10 03:44:00,39.6,25.5,30.26,SSW,203,0.0,1.0,57,0.00,,,0.00,meteohub,2013-11-10 08:44:00,
2013-11-10 03:49:00,39.6,26.1,30.27,SSW,202,0.0,1.0,58,0.00,,,0.00,meteohub,2013-11-10 08:49:00,
2013-11-10 03:54:00,39.0,25.2,30.26,SSW,203,0.0,0.0,57,0.00,,,0.00,meteohub,2013-11-10 08:54:00,
2013-11-10 03:59:00,38.8,25.0,30.26,SSW,203,0.0,0.0,57,0.00,,,0.00,meteohub,2013-11-10 08:59:00,
2013-11-10 04:05:00,38.7,24.3,30.26,SSW,203,0.0,0.0,56,0.00,,,0.00,meteohub,2013-11-10 09:05:00,
2013-11-10 04:10:00,38.8,24.4,30.26,SW,222,0.0,0.0,56,0.00,,,0.00,meteohub,2013-11-10 09:10:00,
2013-11-10 04:15:00,39.0,24.3,30.26,SW,222,0.0,0.0,55,0.00,,,0.00,meteohub,2013-11-10 09:15:00,
2013-11-10 04:20:00,39.2,25.7,30.26,WNW,294,0.0,0.0,58,0.00,,,0.00,meteohub,2013-11-10 09:20:00,
2013-11-10 04:25:00,39.0,25.9,30.26,ESE,114,0.0,0.0,59,0.00,,,0.00,meteohub,2013-11-10 09:25:00,
2013-11-10 04:30:00,39.0,25.5,30.26,ESE,114,0.0,1.0,58,0.00,,,0.00,meteohub,2013-11-10 09:30:00,
2013-11-10 04:35:00,39.2,26.1,30.26,WSW,252,0.0,0.0,59,0.00,,,0.00,meteohub,2013-11-10 09:35:00,
2013-11-10 04:40:00,39.4,27.5,30.27,NNW,338,0.0,1.0,62,0.00,,,0.00,meteohub,2013-11-10 09:40:00,
2013-11-10 04:45:00,39.2,26.1,30.26,SSW,205,0.0,1.0,59,0.00,,,0.00,meteohub,2013-11-10 09:45:00,
2013-11-10 04:50:00,39.4,26.2,30.26,SW,235,0.0,1.0,59,0.00,,,0.00,meteohub,2013-11-10 09:50:00,
2013-11-10 04:55:00,39.4,27.1,30.26,SW,215,1.0,1.0,61,0.00,,,0.00,meteohub,2013-11-10 09:55:00,
2013-11-10 05:00:00,39.0,27.1,30.27,North,358,0.0,1.0,62,0.00,,,0.00,meteohub,2013-11-10 10:00:00,
2013-11-10 05:05:00,37.9,26.4,30.27,SE,142,0.0,4.0,63,0.00,,,0.00,meteohub,2013-11-10 10:05:00,
2013-11-10 05:10:00,37.9,26.4,30.27,SW,215,0.0,4.0,63,0.00,,,0.00,meteohub,2013-11-10 10:10:00,
2013-11-10 05:15:00,37.9,26.8,30.27,SW,214,0.0,2.0,64,0.00,,,0.00,meteohub,2013-11-10 10:15:00,
2013-11-10 05:20:00,38.1,27.0,30.27,ESE,114,0.0,2.0,64,0.00,,,0.00,meteohub,2013-11-10 10:20:00,
2013-11-10 05:25:00,38.1,26.6,30.27,ESE,120,0.0,2.0,63,0.00,,,0.00,meteohub,2013-11-10 10:25:00,
2013-11-10 05:30:00,38.5,28.0,30.27,SW,235,0.0,2.0,66,0.00,,,0.00,meteohub,2013-11-10 10:30:00,
2013-11-10 05:35:00,38.3,27.1,30.27,SSW,201,0.0,1.0,64,0.00,,,0.00,meteohub,2013-11-10 10:35:00,
2013-11-10 05:36:00,38.3,27.1,30.27,SSW,202,0.0,1.0,64,0.00,,,0.00,meteohub,2013-11-10 10:36:00,
2013-11-10 05:41:00,38.3,26.8,30.27,SSW,202,0.0,1.0,63,0.00,,,0.00,meteohub,2013-11-10 10:41:00,
2013-11-10 05:46:00,38.5,27.0,30.27,SSW,203,0.0,1.0,63,0.00,,,0.00,meteohub,2013-11-10 10:46:00,
2013-11-10 05:51:00,38.5,27.3,30.27,SSW,202,0.0,0.0,64,0.00,,,0.00,meteohub,2013-11-10 10:51:00,
2013-11-10 05:56:00,38.3,27.1,30.27,SSW,202,0.0,0.0,64,0.00,,,0.00,meteohub,2013-11-10 10:56:00,
2013-11-10 06:01:00,38.1,27.0,30.27,SSW,203,0.0,0.0,64,0.00,,,0.00,meteohub,2013-11-10 11:01:00,
2013-11-10 06:06:00,37.9,26.4,30.28,SSW,203,0.0,0.0,63,0.00,,,0.00,meteohub,2013-11-10 11:06:00,
2013-11-10 06:11:00,38.1,26.6,30.28,SSW,205,0.0,0.0,63,0.00,,,0.00,meteohub,2013-11-10 11:11:00,
2013-11-10 06:16:00,38.7,26.8,30.28,SSW,207,0.0,0.0,62,0.00,,,0.00,meteohub,2013-11-10 11:16:00,
2013-11-10 06:21:00,38.8,26.6,30.29,SSW,207,0.0,0.0,61,0.00,,,0.00,meteohub,2013-11-10 11:21:00,
2013-11-10 06:26:00,39.0,26.2,30.29,SSW,207,0.0,0.0,60,0.00,,,0.00,meteohub,2013-11-10 11:26:00,
2013-11-10 06:31:00,39.2,26.4,30.29,SSW,207,0.0,0.0,60,0.00,,,0.00,meteohub,2013-11-10 11:31:00,
2013-11-10 06:36:00,39.6,26.8,30.29,SSW,207,0.0,0.0,60,0.00,,,0.00,meteohub,2013-11-10 11:36:00,
2013-11-10 06:41:00,39.6,26.4,30.29,SSW,207,0.0,0.0,59,0.00,,,0.00,meteohub,2013-11-10 11:41:00,
2013-11-10 06:46:00,39.7,26.6,30.29,SSW,207,0.0,0.0,59,0.00,,,0.00,meteohub,2013-11-10 11:46:00,
2013-11-10 06:52:00,39.6,26.4,30.29,SSW,207,0.0,0.0,59,0.00,,,0.00,meteohub,2013-11-10 11:52:00,
2013-11-10 06:57:00,39.6,26.4,30.29,SSW,207,0.0,0.0,59,0.00,,,0.00,meteohub,2013-11-10 11:57:00,
2013-11-10 07:02:00,39.4,27.5,30.29,SSW,207,0.0,0.0,62,0.00,,,0.00,meteohub,2013-11-10 12:02:00,
2013-11-10 07:07:00,39.0,27.5,30.29,SSW,207,0.0,0.0,63,0.00,,,0.00,meteohub,2013-11-10 12:07:00,
2013-11-10 07:12:00,38.7,27.5,30.29,SSW,207,0.0,0.0,64,0.00,,,0.00,meteohub,2013-11-10 12:12:00,
2013-11-10 07:17:00,38.5,27.3,30.29,SSW,207,0.0,0.0,64,0.00,,,0.00,meteohub,2013-11-10 12:17:00,
2013-11-10 07:22:00,38.3,26.8,30.29,SSW,207,0.0,0.0,63,0.00,,,0.00,meteohub,2013-11-10 12:22:00,
2013-11-10 07:27:00,38.5,26.6,30.29,SSW,210,0.0,0.0,62,0.00,,,0.00,meteohub,2013-11-10 12:27:00,
2013-11-10 07:32:00,38.5,26.2,30.29,SSW,210,0.0,0.0,61,0.00,,,0.00,meteohub,2013-11-10 12:32:00,
2013-11-10 07:37:00,38.5,25.9,30.29,SSW,210,0.0,0.0,60,0.00,,,0.00,meteohub,2013-11-10 12:37:00,
2013-11-10 07:42:00,38.7,26.1,30.29,SSW,210,0.0,0.0,60,0.00,,,0.00,meteohub,2013-11-10 12:42:00,
2013-11-10 07:47:00,38.8,26.1,30.29,SSW,210,0.0,0.0,60,0.00,,,0.00,meteohub,2013-11-10 12:47:00,
2013-11-10 07:52:00,39.2,26.4,30.29,West,270,0.0,0.0,60,0.00,,,0.00,meteohub,2013-11-10 12:52:00,
2013-11-10 07:57:00,39.4,26.2,30.30,West,259,0.0,0.0,59,0.00,,,0.00,meteohub,2013-11-10 12:57:00,
2013-11-10 08:02:00,39.9,26.4,30.30,SE,132,0.0,1.0,58,0.00,,,0.00,meteohub,2013-11-10 13:02:00,
2013-11-10 08:07:00,40.8,26.8,30.30,SSW,198,0.0,1.0,57,0.00,,,0.00,meteohub,2013-11-10 13:07:00,
2013-11-10 08:12:00,41.2,27.1,30.30,ESE,115,0.0,1.0,57,0.00,,,0.00,meteohub,2013-11-10 13:12:00,
2013-11-10 08:17:00,41.9,27.3,30.30,ENE,72,0.0,1.0,56,0.00,,,0.00,meteohub,2013-11-10 13:17:00,
2013-11-10 08:22:00,42.8,27.7,30.30,SE,137,0.0,3.0,55,0.00,,,0.00,meteohub,2013-11-10 13:22:00,
2013-11-10 08:27:00,43.3,27.9,30.30,NNE,25,0.0,3.0,54,0.00,,,0.00,meteohub,2013-11-10 13:27:00,
2013-11-10 08:32:00,43.7,28.2,30.30,East,94,0.0,3.0,54,0.00,,,0.00,meteohub,2013-11-10 13:32:00,
2013-11-10 08:37:00,44.2,28.2,30.31,NNE,33,0.0,2.0,53,0.00,,,0.00,meteohub,2013-11-10 13:37:00,
2013-11-10 08:42:00,45.0,28.4,30.31,NE,55,0.0,2.0,52,0.00,,,0.00,meteohub,2013-11-10 13:42:00,
2013-11-10 08:47:00,45.5,28.9,30.31,NE,55,0.0,2.0,52,0.00,,,0.00,meteohub,2013-11-10 13:47:00,
2013-11-10 08:52:00,46.0,28.9,30.31,NE,55,0.0,2.0,51,0.00,,,0.00,meteohub,2013-11-10 13:52:00,
2013-11-10 08:57:00,46.2,28.6,30.31,NNE,23,0.0,1.0,50,0.00,,,0.00,meteohub,2013-11-10 13:57:00,
2013-11-10 09:02:00,46.8,29.1,30.31,NW,316,0.0,1.0,50,0.00,,,0.00,meteohub,2013-11-10 14:02:00,
2013-11-10 09:07:00,47.5,29.3,30.31,ENE,68,0.0,1.0,49,0.00,,,0.00,meteohub,2013-11-10 14:07:00,
2013-11-10 09:12:00,48.6,29.8,30.31,NE,36,0.0,2.0,48,0.00,,,0.00,meteohub,2013-11-10 14:12:00,
2013-11-10 09:17:00,49.3,30.9,30.31,NE,36,0.0,2.0,49,0.00,,,0.00,meteohub,2013-11-10 14:17:00,
2013-11-10 09:22:00,49.8,30.4,30.31,NNE,18,0.0,2.0,47,0.00,,,0.00,meteohub,2013-11-10 14:22:00,
2013-11-10 09:27:00,50.7,30.7,30.31,ENE,73,0.0,2.0,46,0.00,,,0.00,meteohub,2013-11-10 14:27:00,
2013-11-10 09:32:00,51.3,30.6,30.31,ESE,103,0.0,2.0,45,0.00,,,0.00,meteohub,2013-11-10 14:32:00,
2013-11-10 09:37:00,51.6,31.5,30.31,NNW,330,1.0,2.0,46,0.00,,,0.00,meteohub,2013-11-10 14:37:00,
2013-11-10 09:42:00,52.0,31.8,30.31,NE,41,1.0,4.0,46,0.00,,,0.00,meteohub,2013-11-10 14:42:00,
2013-11-10 09:47:00,52.2,32.0,30.31,NNE,23,4.0,4.0,46,0.00,,,0.00,meteohub,2013-11-10 14:47:00,
2013-11-10 09:52:00,52.3,31.6,30.31,NNW,345,2.0,5.0,45,0.00,,,0.00,meteohub,2013-11-10 14:52:00,
2013-11-10 09:57:00,52.7,32.0,30.31,NNE,24,1.0,6.0,45,0.00,,,0.00,meteohub,2013-11-10 14:57:00,
2013-11-10 10:02:00,53.1,32.4,30.31,North,5,4.0,7.0,45,0.00,,,0.00,meteohub,2013-11-10 15:02:00,
2013-11-10 10:07:00,53.4,32.0,30.31,NNE,13,9.0,9.0,44,0.00,,,0.00,meteohub,2013-11-10 15:07:00,
2013-11-10 10:12:00,53.6,32.2,30.31,NNE,18,7.0,10.0,44,0.00,,,0.00,meteohub,2013-11-10 15:12:00,
2013-11-10 10:17:00,54.0,32.5,30.30,WNW,294,0.0,12.0,44,0.00,,,0.00,meteohub,2013-11-10 15:17:00,
2013-11-10 10:22:00,54.3,33.4,30.30,ENE,75,2.0,12.0,45,0.00,,,0.00,meteohub,2013-11-10 15:22:00,
2013-11-10 10:27:00,54.5,33.1,30.30,NNE,30,5.0,10.0,44,0.00,,,0.00,meteohub,2013-11-10 15:27:00,
2013-11-10 10:31:00,54.9,33.4,30.30,NNE,13,4.0,9.0,44,0.00,,,0.00,meteohub,2013-11-10 15:31:00,
2013-11-10 10:37:00,55.0,32.9,30.30,NNE,29,5.0,8.0,43,0.00,,,0.00,meteohub,2013-11-10 15:37:00,
2013-11-10 10:42:00,55.4,33.8,30.30,NNE,18,2.0,11.0,44,0.00,,,0.00,meteohub,2013-11-10 15:42:00,
2013-11-10 10:47:00,55.9,33.8,30.30,NNW,340,2.0,11.0,43,0.00,,,0.00,meteohub,2013-11-10 15:47:00,
2013-11-10 10:52:00,56.1,34.0,30.30,North,6,2.0,8.0,43,0.00,,,0.00,meteohub,2013-11-10 15:52:00,
2013-11-10 10:57:00,56.8,34.5,30.30,NNE,16,5.0,5.0,43,0.00,,,0.00,meteohub,2013-11-10 15:57:00,
2013-11-10 11:02:00,56.8,33.4,30.30,North,9,5.0,8.0,41,0.00,,,0.00,meteohub,2013-11-10 16:02:00,
2013-11-10 11:07:00,56.8,32.7,30.30,NNW,330,1.0,8.0,40,0.00,,,0.00,meteohub,2013-11-10 16:07:00,
2013-11-10 11:12:00,57.4,33.3,30.30,ESE,104,0.0,8.0,40,0.00,,,0.00,meteohub,2013-11-10 16:12:00,
2013-11-10 11:17:00,58.3,34.7,30.30,NW,309,1.0,7.0,41,0.00,,,0.00,meteohub,2013-11-10 16:17:00,
2013-11-10 11:22:00,58.6,34.3,30.29,North,7,1.0,3.0,40,0.00,,,0.00,meteohub,2013-11-10 16:22:00,
2013-11-10 11:27:00,58.5,34.2,30.29,North,359,5.0,7.0,40,0.00,,,0.00,meteohub,2013-11-10 16:27:00,
2013-11-10 11:32:00,58.5,34.2,30.29,NW,321,0.0,8.0,40,0.00,,,0.00,meteohub,2013-11-10 16:32:00,
2013-11-10 11:37:00,58.8,35.8,30.29,WNW,284,0.0,8.0,42,0.00,,,0.00,meteohub,2013-11-10 16:37:00,
2013-11-10 11:42:00,59.5,34.0,30.29,ENE,60,2.0,8.0,38,0.00,,,0.00,meteohub,2013-11-10 16:42:00,
2013-11-10 11:47:00,59.5,34.5,30.28,West,281,2.0,7.0,39,0.00,,,0.00,meteohub,2013-11-10 16:47:00,
2013-11-10 11:52:00,59.7,34.7,30.28,NW,312,0.0,7.0,39,0.00,,,0.00,meteohub,2013-11-10 16:52:00,
2013-11-10 11:57:00,60.1,33.8,30.28,SW,233,2.0,6.0,37,0.00,,,0.00,meteohub,2013-11-10 16:57:00,
2013-11-10 12:02:00,60.3,33.3,30.27,North,350,0.0,4.0,36,0.00,,,0.00,meteohub,2013-11-10 17:02:00,
2013-11-10 12:07:00,60.6,32.2,30.27,West,277,2.0,3.0,34,0.00,,,0.00,meteohub,2013-11-10 17:07:00,
2013-11-10 12:12:00,60.8,32.9,30.27,West,266,1.0,3.0,35,0.00,,,0.00,meteohub,2013-11-10 17:12:00,
2013-11-10 12:17:00,60.8,32.2,30.27,North,7,3.0,3.0,34,0.00,,,0.00,meteohub,2013-11-10 17:17:00,
2013-11-10 12:22:00,60.8,31.5,30.27,West,273,1.0,4.0,33,0.00,,,0.00,meteohub,2013-11-10 17:22:00,
2013-11-10 12:27:00,60.8,32.2,30.27,ENE,77,0.0,4.0,34,0.00,,,0.00,meteohub,2013-11-10 17:27:00,
2013-11-10 12:32:00,61.0,33.1,30.26,NW,319,2.0,8.0,35,0.00,,,0.00,meteohub,2013-11-10 17:32:00,
2013-11-10 12:37:00,61.0,31.6,30.26,ENE,64,0.0,8.0,33,0.00,,,0.00,meteohub,2013-11-10 17:37:00,
2013-11-10 12:42:00,61.2,32.5,30.25,ESE,107,0.0,8.0,34,0.00,,,0.00,meteohub,2013-11-10 17:42:00,
2013-11-10 12:47:00,61.7,32.4,30.25,NNW,347,3.0,4.0,33,0.00,,,0.00,meteohub,2013-11-10 17:47:00,
2013-11-10 12:52:00,61.9,32.5,30.25,NW,320,0.0,6.0,33,0.00,,,0.00,meteohub,2013-11-10 17:52:00,
2013-11-10 12:57:00,62.2,31.3,30.25,North,358,0.0,6.0,31,0.00,,,0.00,meteohub,2013-11-10 17:57:00,
2013-11-10 13:02:00,62.2,31.3,30.24,SE,124,0.0,6.0,31,0.00,,,0.00,meteohub,2013-11-10 18:02:00,
2013-11-10 13:07:00,62.1,31.1,30.24,NNE,20,3.0,4.0,31,0.00,,,0.00,meteohub,2013-11-10 18:07:00,
2013-11-10 13:12:00,62.1,31.8,30.24,WSW,250,1.0,6.0,32,0.00,,,0.00,meteohub,2013-11-10 18:12:00,
2013-11-10 13:17:00,62.8,33.3,30.23,SW,224,0.0,6.0,33,0.00,,,0.00,meteohub,2013-11-10 18:17:00,
2013-11-10 13:22:00,63.5,32.4,30.23,WNW,290,3.0,6.0,31,0.00,,,0.00,meteohub,2013-11-10 18:22:00,
2013-11-10 13:27:00,63.3,31.3,30.23,West,260,2.0,4.0,30,0.00,,,0.00,meteohub,2013-11-10 18:27:00,
2013-11-10 13:32:00,63.5,31.5,30.23,SSW,205,2.0,4.0,30,0.00,,,0.00,meteohub,2013-11-10 18:32:00,
2013-11-10 13:37:00,63.7,31.6,30.23,ENE,63,0.0,4.0,30,0.00,,,0.00,meteohub,2013-11-10 18:37:00,
2013-11-10 13:42:00,64.0,32.0,30.22,West,270,0.0,3.0,30,0.00,,,0.00,meteohub,2013-11-10 18:42:00,
2013-11-10 13:47:00,64.6,32.4,30.22,SSE,147,0.0,3.0,30,0.00,,,0.00,meteohub,2013-11-10 18:47:00,
2013-11-10 13:52:00,64.9,31.1,30.22,West,281,2.0,3.0,28,0.00,,,0.00,meteohub,2013-11-10 18:52:00,
2013-11-10 13:57:00,64.8,31.8,30.22,NE,44,2.0,4.0,29,0.00,,,0.00,meteohub,2013-11-10 18:57:00,
2013-11-10 14:02:00,64.4,32.4,30.22,NNE,15,0.0,4.0,30,0.00,,,0.00,meteohub,2013-11-10 19:02:00,
2013-11-10 14:07:00,64.6,32.4,30.22,NNW,329,1.0,4.0,30,0.00,,,0.00,meteohub,2013-11-10 19:07:00,
2013-11-10 14:12:00,64.8,31.8,30.22,ENE,62,4.0,4.0,29,0.00,,,0.00,meteohub,2013-11-10 19:12:00,
2013-11-10 14:17:00,64.6,32.4,30.22,NNE,33,1.0,4.0,30,0.00,,,0.00,meteohub,2013-11-10 19:17:00,
2013-11-10 14:22:00,64.9,32.0,30.22,ENE,61,0.0,4.0,29,0.00,,,0.00,meteohub,2013-11-10 19:22:00,
2013-11-10 14:27:00,65.5,32.4,30.22,ESE,105,1.0,4.0,29,0.00,,,0.00,meteohub,2013-11-10 19:27:00,
2013-11-10 14:32:00,65.1,32.0,30.21,East,100,1.0,3.0,29,0.00,,,0.00,meteohub,2013-11-10 19:32:00,
2013-11-10 14:37:00,64.9,32.0,30.21,NNW,343,4.0,5.0,29,0.00,,,0.00,meteohub,2013-11-10 19:37:00,
2013-11-10 14:42:00,64.8,31.8,30.21,NNW,340,2.0,5.0,29,0.00,,,0.00,meteohub,2013-11-10 19:42:00,
2013-11-10 14:46:00,64.6,31.6,30.21,NNE,33,6.0,6.0,29,0.00,,,0.00,meteohub,2013-11-10 19:46:00,
2013-11-10 14:52:00,64.0,31.1,30.21,NNE,23,5.0,10.0,29,0.00,,,0.00,meteohub,2013-11-10 19:52:00,
2013-11-10 14:57:00,63.9,31.8,30.21,NNE,16,4.0,10.0,30,0.00,,,0.00,meteohub,2013-11-10 19:57:00,
2013-11-10 15:02:00,63.7,31.6,30.21,NE,44,1.0,10.0,30,0.00,,,0.00,meteohub,2013-11-10 20:02:00,
2013-11-10 15:07:00,63.9,32.7,30.21,NNE,20,0.0,9.0,31,0.00,,,0.00,meteohub,2013-11-10 20:07:00,
2013-11-10 15:12:00,63.9,31.8,30.21,ENE,58,0.0,9.0,30,0.00,,,0.00,meteohub,2013-11-10 20:12:00,
2013-11-10 15:17:00,64.0,32.0,30.20,ESE,107,1.0,5.0,30,0.00,,,0.00,meteohub,2013-11-10 20:17:00,
2013-11-10 15:22:00,63.9,31.8,30.20,ENE,71,0.0,4.0,30,0.00,,,0.00,meteohub,2013-11-10 20:22:00,
2013-11-10 15:27:00,63.9,31.8,30.21,North,1,0.0,1.0,30,0.00,,,0.00,meteohub,2013-11-10 20:27:00,
2013-11-10 15:32:00,63.9,31.8,30.21,West,281,0.0,3.0,30,0.00,,,0.00,meteohub,2013-11-10 20:32:00,
2013-11-10 15:37:00,63.9,31.8,30.21,SSE,152,0.0,3.0,30,0.00,,,0.00,meteohub,2013-11-10 20:37:00,
2013-11-10 15:42:00,63.7,31.6,30.21,NNE,33,4.0,4.0,30,0.00,,,0.00,meteohub,2013-11-10 20:42:00,
2013-11-10 15:47:00,63.5,31.5,30.21,WNW,294,0.0,8.0,30,0.00,,,0.00,meteohub,2013-11-10 20:47:00,
2013-11-10 15:52:00,63.7,31.6,30.21,NNW,334,0.0,8.0,30,0.00,,,0.00,meteohub,2013-11-10 20:52:00,
2013-11-10 15:57:00,63.7,31.6,30.21,North,0,0.0,8.0,30,0.00,,,0.00,meteohub,2013-11-10 20:57:00,
2013-11-10 16:02:00,63.3,31.3,30.21,North,6,0.0,3.0,30,0.00,,,0.00,meteohub,2013-11-10 21:02:00,
2013-11-10 16:07:00,63.3,32.2,30.21,NNE,27,1.0,4.0,31,0.00,,,0.00,meteohub,2013-11-10 21:07:00,
2013-11-10 16:12:00,63.1,31.3,30.21,North,352,1.0,4.0,30,0.00,,,0.00,meteohub,2013-11-10 21:12:00,
2013-11-10 16:17:00,63.1,32.0,30.21,NNE,16,5.0,8.0,31,0.00,,,0.00,meteohub,2013-11-10 21:17:00,
2013-11-10 16:22:00,62.8,30.9,30.21,NE,35,3.0,8.0,30,0.00,,,0.00,meteohub,2013-11-10 21:22:00,
2013-11-10 16:27:00,62.4,30.6,30.21,NNE,18,3.0,8.0,30,0.00,,,0.00,meteohub,2013-11-10 21:27:00,
2013-11-10 16:32:00,62.2,30.4,30.22,NE,36,1.0,6.0,30,0.00,,,0.00,meteohub,2013-11-10 21:32:00,
2013-11-10 16:37:00,62.2,30.4,30.22,North,350,0.0,5.0,30,0.00,,,0.00,meteohub,2013-11-10 21:37:00,
2013-11-10 16:42:00,62.2,30.4,30.22,NNE,33,0.0,5.0,30,0.00,,,0.00,meteohub,2013-11-10 21:42:00,
2013-11-10 16:47:00,61.9,30.0,30.22,NNE,20,1.0,3.0,30,0.00,,,0.00,meteohub,2013-11-10 21:47:00,
2013-11-10 16:52:00,61.5,29.8,30.22,NE,42,0.0,2.0,30,0.00,,,0.00,meteohub,2013-11-10 21:52:00,
2013-11-10 16:57:00,61.3,30.4,30.22,NNE,30,0.0,4.0,31,0.00,,,0.00,meteohub,2013-11-10 21:57:00,
2013-11-10 17:02:00,61.0,30.2,30.22,NE,44,3.0,4.0,31,0.00,,,0.00,meteohub,2013-11-10 22:02:00,
2013-11-10 17:07:00,60.4,29.7,30.22,NNW,344,1.0,4.0,31,0.00,,,0.00,meteohub,2013-11-10 22:07:00,
2013-11-10 17:12:00,60.1,30.2,30.22,NNE,27,0.0,4.0,32,0.00,,,0.00,meteohub,2013-11-10 22:12:00,
2013-11-10 17:17:00,59.5,28.9,30.22,NNE,22,1.0,4.0,31,0.00,,,0.00,meteohub,2013-11-10 22:17:00,
2013-11-10 17:22:00,59.4,29.5,30.22,NNE,15,0.0,4.0,32,0.00,,,0.00,meteohub,2013-11-10 22:22:00,
2013-11-10 17:28:00,59.0,28.4,30.22,ENE,74,0.0,3.0,31,0.00,,,0.00,meteohub,2013-11-10 22:28:00,
2013-11-10 17:33:00,58.8,28.9,30.22,ENE,77,0.0,4.0,32,0.00,,,0.00,meteohub,2013-11-10 22:33:00,
2013-11-10 17:38:00,58.3,28.6,30.23,NNE,13,0.0,4.0,32,0.00,,,0.00,meteohub,2013-11-10 22:38:00,
2013-11-10 17:43:00,57.7,28.0,30.23,South,169,0.0,4.0,32,0.00,,,0.00,meteohub,2013-11-10 22:43:00,
2013-11-10 17:48:00,57.4,28.6,30.23,WNW,287,0.0,3.0,33,0.00,,,0.00,meteohub,2013-11-10 22:48:00,
2013-11-10 17:53:00,56.7,28.6,30.24,South,184,0.0,1.0,34,0.00,,,0.00,meteohub,2013-11-10 22:53:00,
2013-11-10 17:58:00,55.9,28.8,30.24,SSW,204,0.0,1.0,35,0.00,,,0.00,meteohub,2013-11-10 22:58:00,
2013-11-10 18:03:00,55.2,28.0,30.24,SSW,204,0.0,1.0,35,0.00,,,0.00,meteohub,2013-11-10 23:03:00,
2013-11-10 18:08:00,54.7,28.2,30.24,SSW,204,0.0,1.0,36,0.00,,,0.00,meteohub,2013-11-10 23:08:00,
2013-11-10 18:13:00,54.1,28.4,30.24,SSW,205,0.0,0.0,37,0.00,,,0.00,meteohub,2013-11-10 23:13:00,
2013-11-10 18:18:00,53.8,28.0,30.24,SSW,205,0.0,0.0,37,0.00,,,0.00,meteohub,2013-11-10 23:18:00,
2013-11-10 18:23:00,53.4,28.4,30.25,SSW,202,0.0,0.0,38,0.00,,,0.00,meteohub,2013-11-10 23:23:00,
2013-11-10 18:28:00,53.6,28.6,30.25,ENE,60,0.0,0.0,38,0.00,,,0.00,meteohub,2013-11-10 23:28:00,
2013-11-10 18:33:00,54.0,28.9,30.25,East,101,1.0,2.0,38,0.00,,,0.00,meteohub,2013-11-10 23:33:00,
2013-11-10 18:38:00,54.1,29.1,30.25,NE,41,0.0,4.0,38,0.00,,,0.00,meteohub,2013-11-10 23:38:00,
2013-11-10 18:43:00,54.0,28.9,30.25,NE,40,0.0,4.0,38,0.00,,,0.00,meteohub,2013-11-10 23:43:00,
2013-11-10 18:48:00,53.8,29.5,30.25,North,0,0.0,4.0,39,0.00,,,0.00,meteohub,2013-11-10 23:48:00,
2013-11-10 18:53:00,53.4,29.1,30.25,NNW,340,0.0,4.0,39,0.00,,,0.00,meteohub,2013-11-10 23:53:00,
2013-11-10 18:58:00,53.2,29.5,30.25,NNW,340,0.0,4.0,40,0.00,,,0.00,meteohub,2013-11-10 23:58:00,
2013-11-10 19:03:00,52.9,29.8,30.25,West,260,0.0,3.0,41,0.00,,,0.00,meteohub,2013-11-11 00:03:00,
2013-11-10 19:08:00,52.5,29.5,30.25,South,190,0.0,2.0,41,0.00,,,0.00,meteohub,2013-11-11 00:08:00,
2013-11-10 19:13:00,52.2,29.8,30.25,SSW,207,0.0,1.0,42,0.00,,,0.00,meteohub,2013-11-11 00:13:00,
2013-11-10 19:18:00,51.8,29.5,30.25,SSW,208,0.0,1.0,42,0.00,,,0.00,meteohub,2013-11-11 00:18:00,
2013-11-10 19:23:00,51.4,29.7,30.25,SSW,208,0.0,1.0,43,0.00,,,0.00,meteohub,2013-11-11 00:23:00,
2013-11-10 19:28:00,51.1,29.3,30.25,SW,228,0.0,0.0,43,0.00,,,0.00,meteohub,2013-11-11 00:28:00,
2013-11-10 19:33:00,50.7,29.7,30.25,SW,228,0.0,0.0,44,0.00,,,0.00,meteohub,2013-11-11 00:33:00,
2013-11-10 19:38:00,50.5,29.5,30.24,SW,226,0.0,0.0,44,0.00,,,0.00,meteohub,2013-11-11 00:38:00,
2013-11-10 19:43:00,50.5,30.0,30.25,SW,229,0.0,0.0,45,0.00,,,0.00,meteohub,2013-11-11 00:43:00,
2013-11-10 19:48:00,50.2,30.2,30.24,SW,229,0.0,1.0,46,0.00,,,0.00,meteohub,2013-11-11 00:48:00,
2013-11-10 19:53:00,49.6,29.7,30.24,SW,229,0.0,1.0,46,0.00,,,0.00,meteohub,2013-11-11 00:53:00,
2013-11-10 19:58:00,48.9,29.7,30.25,SW,229,0.0,1.0,47,0.00,,,0.00,meteohub,2013-11-11 00:58:00,
2013-11-10 20:03:00,48.4,29.7,30.25,SW,229,0.0,0.0,48,0.00,,,0.00,meteohub,2013-11-11 01:03:00,
2013-11-10 20:08:00,48.0,29.3,30.25,SW,229,0.0,0.0,48,0.00,,,0.00,meteohub,2013-11-11 01:08:00,
2013-11-10 20:13:00,47.7,29.5,30.25,SW,229,0.0,0.0,49,0.00,,,0.00,meteohub,2013-11-11 01:13:00,
2013-11-10 20:18:00,47.3,29.7,30.25,SW,229,0.0,0.0,50,0.00,,,0.00,meteohub,2013-11-11 01:18:00,
2013-11-10 20:23:00,46.9,29.8,30.25,SW,229,0.0,0.0,51,0.00,,,0.00,meteohub,2013-11-11 01:23:00,
2013-11-10 20:28:00,46.9,29.3,30.24,WSW,251,0.0,0.0,50,0.00,,,0.00,meteohub,2013-11-11 01:28:00,
2013-11-10 20:33:00,47.1,28.9,30.24,SW,219,0.0,1.0,49,0.00,,,0.00,meteohub,2013-11-11 01:33:00,
2013-11-10 20:38:00,47.5,29.3,30.24,SW,219,0.0,1.0,49,0.00,,,0.00,meteohub,2013-11-11 01:38:00,
2013-11-10 20:43:00,47.5,28.2,30.24,SW,224,0.0,1.0,47,0.00,,,0.00,meteohub,2013-11-11 01:43:00,
2013-11-10 20:48:00,47.7,28.4,30.24,NW,314,0.0,1.0,47,0.00,,,0.00,meteohub,2013-11-11 01:48:00,
2013-11-10 20:53:00,47.5,28.2,30.24,NW,312,0.0,0.0,47,0.00,,,0.00,meteohub,2013-11-11 01:53:00,
2013-11-10 20:58:00,47.3,28.0,30.24,WNW,284,0.0,0.0,47,0.00,,,0.00,meteohub,2013-11-11 01:58:00,
2013-11-10 21:03:00,47.3,28.0,30.24,SE,125,0.0,0.0,47,0.00,,,0.00,meteohub,2013-11-11 02:03:00,
2013-11-10 21:08:00,47.5,28.2,30.24,ESE,103,0.0,0.0,47,0.00,,,0.00,meteohub,2013-11-11 02:08:00,
2013-11-10 21:13:00,47.8,28.6,30.25,NE,42,0.0,0.0,47,0.00,,,0.00,meteohub,2013-11-11 02:13:00,
2013-11-10 21:18:00,47.8,28.0,30.24,NNE,33,4.0,4.0,46,0.00,,,0.00,meteohub,2013-11-11 02:18:00,
2013-11-10 21:23:00,48.6,28.2,30.25,NNE,23,1.0,5.0,45,0.00,,,0.00,meteohub,2013-11-11 02:23:00,
2013-11-10 21:28:00,48.9,28.0,30.25,ENE,60,1.0,5.0,44,0.00,,,0.00,meteohub,2013-11-11 02:28:00,
2013-11-10 21:33:00,49.3,27.7,30.25,NNE,30,0.0,6.0,43,0.00,,,0.00,meteohub,2013-11-11 02:33:00,
2013-11-10 21:39:00,49.3,27.7,30.25,North,358,0.0,6.0,43,0.00,,,0.00,meteohub,2013-11-11 02:39:00,
2013-11-10 21:44:00,49.5,27.9,30.25,North,359,0.0,4.0,43,0.00,,,0.00,meteohub,2013-11-11 02:44:00,
2013-11-10 21:49:00,49.3,27.7,30.25,South,186,0.0,4.0,43,0.00,,,0.00,meteohub,2013-11-11 02:49:00,
2013-11-10 21:54:00,48.9,27.3,30.25,East,83,0.0,4.0,43,0.00,,,0.00,meteohub,2013-11-11 02:54:00,
2013-11-10 21:59:00,49.1,27.5,30.25,ENE,62,0.0,3.0,43,0.00,,,0.00,meteohub,2013-11-11 02:59:00,
2013-11-10 22:04:00,48.9,28.0,30.25,SE,129,0.0,6.0,44,0.00,,,0.00,meteohub,2013-11-11 03:04:00,
2013-11-10 22:09:00,48.7,28.4,30.25,SW,225,0.0,6.0,45,0.00,,,0.00,meteohub,2013-11-11 03:09:00,
2013-11-10 22:14:00,48.7,28.4,30.25,ENE,72,1.0,6.0,45,0.00,,,0.00,meteohub,2013-11-11 03:14:00,
2013-11-10 22:19:00,48.6,28.2,30.25,ENE,64,1.0,3.0,45,0.00,,,0.00,meteohub,2013-11-11 03:19:00,
2013-11-10 22:24:00,48.4,28.0,30.25,North,358,0.0,3.0,45,0.00,,,0.00,meteohub,2013-11-11 03:24:00,
2013-11-10 22:29:00,48.0,28.2,30.25,NNE,16,0.0,3.0,46,0.00,,,0.00,meteohub,2013-11-11 03:29:00,
2013-11-10 22:34:00,47.7,27.9,30.25,NNE,20,0.0,2.0,46,0.00,,,0.00,meteohub,2013-11-11 03:34:00,
2013-11-10 22:39:00,47.3,28.0,30.25,NNE,23,0.0,2.0,47,0.00,,,0.00,meteohub,2013-11-11 03:39:00,
2013-11-10 22:44:00,46.8,28.0,30.25,NNE,23,0.0,2.0,48,0.00,,,0.00,meteohub,2013-11-11 03:44:00,
2013-11-10 22:49:00,45.9,28.2,30.26,NNE,23,0.0,0.0,50,0.00,,,0.00,meteohub,2013-11-11 03:49:00,
2013-11-10 22:54:00,45.0,27.9,30.25,NNE,23,0.0,0.0,51,0.00,,,0.00,meteohub,2013-11-11 03:54:00,
2013-11-10 22:59:00,44.4,28.4,30.26,NNE,21,0.0,0.0,53,0.00,,,0.00,meteohub,2013-11-11 03:59:00,
2013-11-10 23:04:00,43.9,28.4,30.26,SW,225,0.0,0.0,54,0.00,,,0.00,meteohub,2013-11-11 04:04:00,
2013-11-10 23:09:00,43.3,28.2,30.26,SW,225,0.0,1.0,55,0.00,,,0.00,meteohub,2013-11-11 04:09:00,
2013-11-10 23:14:00,43.2,28.0,30.26,WNW,299,0.0,1.0,55,0.00,,,0.00,meteohub,2013-11-11 04:14:00,
2013-11-10 23:19:00,43.0,28.4,30.26,WNW,296,0.0,1.0,56,0.00,,,0.00,meteohub,2013-11-11 04:19:00,
2013-11-10 23:24:00,42.6,28.4,30.26,WNW,301,0.0,1.0,57,0.00,,,0.00,meteohub,2013-11-11 04:24:00,
2013-11-10 23:29:00,42.6,28.4,30.26,WNW,300,0.0,1.0,57,0.00,,,0.00,meteohub,2013-11-11 04:29:00,
2013-11-10 23:34:00,42.6,28.9,30.26,SW,235,0.0,0.0,58,0.00,,,0.00,meteohub,2013-11-11 04:34:00,
2013-11-10 23:39:00,43.2,29.3,30.25,East,91,0.0,0.0,58,0.00,,,0.00,meteohub,2013-11-11 04:39:00,
2013-11-10 23:44:00,43.5,29.3,30.25,NE,42,0.0,1.0,57,0.00,,,0.00,meteohub,2013-11-11 04:44:00,
2013-11-10 23:49:00,44.2,29.1,30.25,NNE,25,0.0,1.0,55,0.00,,,0.00,meteohub,2013-11-11 04:49:00,
2013-11-10 23:54:00,44.4,28.8,30.25,ENE,65,0.0,2.0,54,0.00,,,0.00,meteohub,2013-11-11 04:54:00,
2013-11-10 23:59:00,44.8,28.8,30.25,NNE,18,0.0,2.0,53,0.00,,,0.00,meteohub,2013-11-11 04:59:00,